Home   Weather   Dubrovnik   Past weeks

Flag for Croatia Past Weather in Dubrovnik, Croatia — Yesterday and Last 2 Weeks

61 °F


Feels Like: 61 °F
Forecast: 60 / 68 °F
Wind: 5 mph from East

Location: Dubrovnik / Cilipi

Current Time: Oct 26, 2016 at 12:46:37 AM

Latest Report: Oct 26, 2016 at 12:00 AM

Visibility: 10 mi

Pressure: 30.21 "Hg

Humidity: 94%

Dew Point: 59 °F

Location of DubrovnikLocation

Past Weather in Dubrovnik — Graph


Dubrovnik Temperature Yesterday

Maximum temperature yesterday: 73 °F (at 11:30 AM)
Minimum temperature yesterday: 55 °F (at 5:30 AM)
Average temperature yesterday: 63 °F

High & Low Weather Summary for the Past Weeks

High79 °F (Oct 15, 12:30 PM)100% (Oct 10, 11:00 PM)30.30 "Hg (Oct 10, 11:00 PM)
Low50 °F (Oct 13, 3:30 AM)31% (Oct 15, 12:00 PM)29.65 "Hg (Oct 12, 2:00 AM)
Average62 °F80%30.06 "Hg
* Reported Oct 10 11:00 PM — Oct 25 11:30 PM, Dubrovnik, Weather by CustomWeather, © 2016

Note: Actual official high and low records may vary slightly from our data, if they occured in-between our weather recording intervals... More about our weather records


Dubrovnik Weather History for the Previous 24 Hours

Scroll right to see more
Time TempWeatherWind HumidityBarometerVisibility
11:30 PM
Tue, Oct 25
59 °FPassing clouds.6 mph100%30.21 "HgN/A
11:00 PM59 °FPassing clouds.7 mph100%30.21 "HgN/A
10:30 PM61 °FClear.6 mph100%30.21 "Hg10 mi
10:00 PM59 °FPassing clouds.3 mph100%30.21 "HgN/A
9:30 PM61 °FClear.6 mph100%30.21 "Hg10 mi
9:00 PM61 °FClear.3 mph100%30.21 "Hg10 mi
8:30 PM61 °FClear.3 mph100%30.21 "Hg10 mi
8:00 PM61 °FClear.2 mph94%30.21 "Hg10 mi
7:30 PM61 °FClear.No wind100%30.21 "Hg10 mi
7:00 PM61 °FClear.1 mph100%30.21 "Hg10 mi
6:30 PM63 °FClear.5 mph94%30.21 "Hg10 mi
6:00 PM64 °FClear.1 mph88%30.21 "Hg10 mi
5:30 PM66 °FSunny.No wind88%30.21 "Hg10 mi
5:00 PM68 °FSunny.2 mph73%30.24 "Hg10 mi
4:30 PM70 °FSunny.2 mph73%30.24 "Hg10 mi
4:00 PM72 °FSunny.2 mph65%30.24 "Hg10 mi
3:30 PM70 °FPassing clouds.5 mph69%30.24 "HgN/A
3:00 PM70 °FPassing clouds.5 mph73%30.24 "HgN/A
2:30 PM70 °FPassing clouds.6 mph73%30.24 "HgN/A
2:00 PM70 °FPassing clouds.7 mph78%30.27 "HgN/A
1:30 PM72 °FPassing clouds.6 mph73%30.27 "HgN/A
1:00 PM70 °FPassing clouds.7 mph78%30.27 "HgN/A
12:30 PM70 °FPassing clouds.8 mph73%30.30 "HgN/A
12:00 PM72 °FPassing clouds.7 mph65%30.30 "HgN/A
11:30 AM73 °FSunny.3 mph57%30.30 "Hg10 mi
11:00 AM72 °FPassing clouds.3 mph61%30.30 "HgN/A
10:30 AM72 °FPassing clouds.3 mph57%30.30 "HgN/A
10:00 AM70 °FPassing clouds.5 mph64%30.30 "HgN/A
9:30 AM68 °FPassing clouds.3 mph69%30.30 "HgN/A
9:00 AM64 °FPassing clouds.5 mph83%30.27 "HgN/A
8:30 AM61 °FSunny.6 mph88%30.27 "Hg10 mi
8:00 AM59 °FSunny.7 mph88%30.27 "Hg10 mi
7:30 AM57 °FSunny.7 mph94%30.27 "Hg10 mi
7:00 AM59 °FClear.5 mph82%30.27 "Hg10 mi
6:30 AM57 °FClear.7 mph94%30.27 "Hg10 mi
6:00 AM57 °FClear.7 mph94%30.27 "Hg10 mi
5:30 AM55 °FClear.8 mph100%30.27 "Hg10 mi
5:00 AM57 °FClear.6 mph94%30.27 "Hg10 mi
4:30 AM57 °FClear.5 mph94%30.27 "Hg10 mi
4:00 AM57 °FClear.7 mph94%30.27 "Hg10 mi
3:30 AM57 °FClear.7 mph94%30.27 "Hg10 mi
3:00 AM59 °FClear.6 mph94%30.27 "Hg10 mi
2:30 AM57 °FClear.7 mph100%30.27 "Hg10 mi
2:00 AM59 °FClear.7 mph94%30.27 "Hg10 mi
1:00 AM59 °FPassing clouds.6 mph100%30.27 "HgN/A
12:30 AM63 °FPassing clouds.7 mph88%30.27 "HgN/A
12:00 AM61 °FClear.7 mph94%30.27 "Hg10 mi
Weather by CustomWeather, © 2016

See weather overviewHow to use our weather pages